Pond Inlet,

3:40 PM EST on December 03, 2016 (GMT -0500)
Pond Inlet

Weather History for CYIO - January, 2013

Change the Weather History Date:

Friday, January 4, 2013

  Actual Average Record
Temperature  
Mean Temperature -34 °F -  
Max Temperature -31 °F -18 °F 12 °F (2011)
Min Temperature -36 °F -28 °F -41 °F (2008)
Degree Days  
Heating Degree Days 99    
Moisture  
Dew Point -42 °F    
Average Humidity 61    
Maximum Humidity 68    
Minimum Humidity 44    
Precipitation  
Precipitation 0.00 in - - ()
Sea Level Pressure  
Sea Level Pressure 29.59 in    
Wind  
Wind Speed 2 mph ()    
Max Wind Speed 5 mph    
Max Gust Speed -    
Visibility 11.6 miles    
Events      
Averages and records for this station are not official NWS values.
T = Trace of Precipitation, MM = Missing Value Source: Averaged Metar Reports

Daily Weather History Graph

Daily Weather History Graph

Search for Another Location

Airport or City:

Trip Planner

Search our weather history database for the weather conditions in past years. The results will help you decide how hot, cold, wet, or windy it might be!

Date:

Astronomy

Dec. 31, 1969 Rise Set
Actual Time Sun does not rise Sun does not rise
Civil Twilight 11:10 AM EST 1:24 PM EST
Nautical Twilight 8:39 AM EST 3:55 PM EST
Astronomical Twilight 7:06 AM EST 5:28 PM EST
Moon 12:21 AM EST (1/4) 10:08 AM EST (1/4)
Length of Visible Light 2h 13m
Length of Day
0h 00m
Waning Gibbous, 55% of the Moon is Illuminated
Jan 4
Waning Gibbous
Jan 4
Last Quarter
Jan 11
New
Jan 18
First Quarter
Jan 26
Full

Hourly Weather History & Observations

Time (EST) Temp. Windchill Dew Point Humidity Pressure Visibility Wind Dir Wind Speed Gust Speed Precip Events Conditions
12:00 AM -34.6 °F -47.4 °F -41.8 °F 68% 29.68 in 9.0 mi South 3.5 mph - N/A   Clear
1:00 AM -34 °F - -42 °F 47% 29.67 in 9 mi SSW 2.3 mph - -  
1:00 AM -32.8 °F - -41.8 °F 62% 29.67 in 9.0 mi South 2.3 mph - N/A   Clear
2:00 AM -34.6 °F - -41.8 °F 68% 29.67 in 9.0 mi South 2.3 mph - N/A   Partly Cloudy
3:00 AM -34.6 °F - -41.8 °F 68% 29.65 in 9.0 mi Calm Calm - N/A   Clear
4:00 AM -33 °F - -41 °F 44% 29.65 in 9 mi Calm Calm - -  
4:00 AM -32.8 °F - -41.8 °F 62% 29.65 in 9.0 mi SSW 2.3 mph - N/A   Clear
5:00 AM -34.6 °F - -41.8 °F 68% 29.65 in 9.0 mi SSW 2.3 mph - N/A   Clear
6:00 AM -34.6 °F - -41.8 °F 68% 29.63 in 9.0 mi SSW 2.3 mph - N/A   Clear
7:00 AM -36 °F - -44 °F 47% 29.62 in 9 mi SSW 2.3 mph - -  
8:00 AM -34.6 °F -47.4 °F -41.8 °F 68% 29.61 in 9.0 mi South 3.5 mph - N/A   Clear
9:00 AM -36.4 °F - -43.6 °F 67% 29.60 in 9.0 mi Calm Calm - N/A   Partly Cloudy
10:00 AM -36 °F - -44 °F 46% 29.59 in 9 mi Calm Calm - -  
10:00 AM -36.4 °F - -43.6 °F 67% 29.59 in 9.0 mi Calm Calm - N/A   Partly Cloudy
11:00 AM -36.4 °F - -45.4 °F 61% 29.58 in 9.0 mi Calm Calm - N/A   Clear
12:00 PM -34.6 °F - -43.6 °F 61% 29.57 in 9.0 mi SSW 2.3 mph - N/A   Clear
1:00 PM -35 °F - -42 °F 50% 29.56 in 9 mi SSW 3.5 mph - -  
1:00 PM -34.6 °F -47.4 °F -41.8 °F 68% 29.56 in 20.0 mi South 3.5 mph - N/A   Partly Cloudy
2:00 PM -34.6 °F - -43.6 °F 61% 29.56 in 20.0 mi South 2.3 mph - N/A   Partly Cloudy
3:00 PM -34.6 °F - -41.8 °F 68% 29.57 in 20.0 mi Calm Calm - N/A   Partly Cloudy
4:00 PM -36 °F - -43 °F 48% 29.56 in 9 mi South 4.6 mph - -  
4:00 PM -36.4 °F -49.4 °F -43.6 °F 67% 29.57 in 20.0 mi South 3.5 mph - N/A   Partly Cloudy
5:00 PM -32.8 °F -48.2 °F -41.8 °F 62% 29.56 in 20.0 mi South 4.6 mph - N/A   Clear
6:00 PM -32.8 °F - -40.0 °F 68% 29.55 in 20.0 mi Calm Calm - N/A   Clear
7:00 PM -35 °F - -42 °F 50% 29.54 in 9 mi SSW 2.3 mph - -  
7:00 PM -34.6 °F - -41.8 °F 68% 29.54 in 20.0 mi SSW 2.3 mph - N/A   Clear
8:00 PM -34.6 °F - -41.8 °F 68% 29.53 in 9.0 mi SSW 2.3 mph - N/A   Clear
9:00 PM -34.6 °F -47.4 °F -41.8 °F 68% 29.51 in 9.0 mi SSW 3.5 mph - N/A   Clear
10:00 PM -32 °F - -39 °F 50% 29.50 in 9 mi South 3.5 mph - -  
11:00 PM -31.0 °F - -40.0 °F 62% 29.49 in 9.0 mi SSW 2.3 mph - N/A   Clear